Location: McFarlands Corners
(41.4117°N, 81.3382°W)
Time: 20:09:35
(UTC+00:00)

SR - Pass Details

Date: 17 February 2026
Orbit: 573 x 848 km, 66.7° (Epoch: 6 March)

Event Time Altitude Azimuth Distance (km) Brightness Sun altitude
Rises 20:41:08 0° 305° (NW) 3,165 ? 22.4°
Reaches altitude 10° 20:45:57 10° 264° (W) 2,318 ? 21.7°
Maximum altitude 20:46:41 10° 256° (WSW) 2,309 ? 21.6°
Drops below altitude 10° 20:47:26 10° 248° (WSW) 2,339 ? 21.5°
Sets 20:52:29 0° 209° (SSW) 3,329 ? 20.7°
